Wind_Speed
20 21 23 23 20 12 10 9 9 9 9 9 8 8 8 9 10 12 13 9 11 10 8 4 6 8 9 12 15 12 12 12 17 11 12 14 9 12 7 13 12 15 10 26 29
21 22 24 26 18 13 11 10 9 8 8 7 6 6 7 7 9 14 10 13 15 12 11 8 7 7 10 15 6 10 11 14 12 9 10 11 10 8 6 6 15 20 29 27 29
22 23 25 26 18 14 14 14 12 10 9 8 6 5 5 6 6 10 15 14 13 12 12 9 9 7 15 14 11 8 11 12 13 11 9 12 10 7 8 8 15 6 25 23 26
22 23 25 26 19 15 17 12 9 7 7 8 8 6 5 4 2 1 4 8 11 11 11 12 12 12 14 14 9 6 10 12 9 9 9 8 8 3 13 9 4 9 21 22 24
22 23 25 25 22 15 17 10 7 7 5 4 5 7 7 5 2 2 2 7 12 14 11 11 11 11 13 14 10 8 9 8 9 6 6 4 7 8 11 5 8 7 5 21 20
22 23 25 25 24 14 16 11 7 6 4 1 5 9 7 9 2 3 2 7 10 12 9 11 11 10 14 16 9 12 11 10 5 6 0 4 8 3 6 5 9 9 5 17 18
22 23 24 25 24 15 16 11 5 5 5 4 6 8 7 4 4 7 5 8 9 10 9 9 11 13 6 12 6 8 11 13 7 3 3 8 10 8 3 7 12 10 7 5 14
22 22 23 25 24 15 16 8 1 1 3 3 6 5 3 5 7 8 7 5 8 9 9 9 10 14 16 15 15 13 15 11 12 3 7 8 10 8 4 14 11 8 7 7 2
22 22 23 23 23 17 14 6 2 1 1 4 5 5 4 8 10 9 8 6 6 8 8 7 8 14 17 11 14 13 11 12 10 5 3 6 13 9 10 12 12 11 7 10 7
22 22 22 22 20 14 11 6 3 4 1 6 6 7 10 9 9 10 10 7 6 6 8 8 10 12 13 12 10 11 3 5 1 11 4 5 3 11 3 14 13 13 11 12 10
23 22 21 20 16 11 13 7 4 2 10 10 13 7 9 9 8 9 11 8 8 8 11 14 10 13 9 6 11 10 7 8 3 4 3 13 5 7 3 7 15 13 15 12 12
23 22 20 18 11 7 10 8 5 5 11 20 12 9 5 10 9 10 12 10 11 11 14 7 12 2 8 5 7 9 7 12 3 4 4 11 8 10 8 5 9 15 11 14 12
22 22 20 15 6 7 4 7 7 7 7 14 13 16 13 11 12 13 15 14 11 12 9 13 5 7 2 8 7 12 11 10 9 7 9 15 12 12 14 9 11 9 15 13 8
21 20 19 14 5 6 3 9 9 6 5 13 11 11 14 12 11 15 15 14 7 11 10 9 8 3 6 10 4 8 10 5 9 11 12 11 10 15 17 13 11 13 13 14 9
19 19 14 14 9 6 8 10 9 3 5 12 12 13 14 13 15 12 14 12 13 9 5 3 3 5 5 5 6 13 10 11 13 13 15 16 10 8 18 16 13 15 11 9 8
17 17 15 11 8 5 11 11 5 6 6 10 11 11 14 18 9 15 12 12 10 10 8 13 5 4 7 7 4 10 13 15 16 15 13 18 13 11 14 12 14 17 12 6 3
17 14 15 10 6 8 11 8 6 8 9 11 12 13 15 15 13 10 12 13 11 9 12 14 11 10 1 9 11 10 12 9 11 11 6 8 4 10 13 12 14 14 9 6 1
16 13 11 11 10 9 9 8 8 13 9 6 2 15 14 16 13 13 13 13 15 16 11 9 7 14 9 5 9 8 6 5 11 12 9 9 6 7 16 18 14 8 4 1 3
16 8 12 9 5 6 9 9 11 11 8 3 8 11 12 14 7 13 12 14 14 18 10 10 5 12 5 2 2 3 7 13 8 13 13 11 4 9 13 11 14 8 5 5 8
18 10 13 11 6 7 8 14 17 15 5 6 10 7 13 15 10 13 11 12 12 4 4 11 9 6 10 4 8 9 10 8 9 12 9 7 10 8 9 7 8 3 2 7 7
12 7 10 6 6 10 9 14 11 6 2 7 13 15 14 15 10 13 16 11 7 3 3 12 12 10 12 6 12 8 11 7 9 6 8 8 4 10 9 9 6 4 10 5 7
6 6 7 6 10 12 12 18 9 8 5 8 10 15 16 8 16 6 14 8 4 8 6 4 8 9 17 14 3 6 11 13 10 12 9 10 9 12 7 3 6 7 14 14 12
9 16 10 8 8 11 16 12 6 9 12 9 10 10 14 12 8 8 12 11 6 2 4 6 5 9 15 16 13 8 4 11 9 8 11 10 10 4 10 2 5 11 6 6 8
7 4 11 14 18 16 14 11 9 11 13 10 10 11 10 10 11 8 12 9 7 8 8 3 10 10 12 17 12 10 10 10 11 8 12 14 15 13 14 12 9 9 12 5 8
6 4 8 5 1 10 10 12 9 9 10 13 9 14 9 12 12 12 12 8 9 10 4 4 11 14 16 16 17 17 18 17 17 17 17 18 19 14 9 10 11 11 10 9 12
10 9 17 18 15 9 6 9 13 15 12 9 11 15 12 13 12 14 11 12 11 15 9 8 13 11 14 15 17 21 20 19 20 20 21 19 18 6 12 13 15 14 15 16 14
12 11 11 11 12 9 12 14 13 9 14 6 10 11 12 12 16 17 13 9 7 5 9 6 8 9 14 14 18 16 18 18 17 15 16 14 8 11 10 9 9 14 15 12 9
Wind_Direction
8 5 1 356 349 342 330 318 307 297 290 287 285 282 278 273 264 255 246 236 240 247 223 242 253 255 267 270 266 280 274 288 35 47 9 16 359 7 357 7 72 70 81 142 149
4 3 0 358 355 351 342 329 316 303 293 287 284 279 278 274 266 251 243 228 240 235 215 217 238 250 258 258 256 258 292 22 30 2 3 354 352 317 340 30 58 91 109 132 150
3 1 0 0 358 352 341 327 315 301 286 276 272 268 269 270 284 228 226 244 236 223 203 230 254 266 273 270 270 266 316 3 344 31 333 334 298 11 13 40 43 34 125 144 157
2 360 359 1 357 352 346 339 335 328 298 269 252 242 236 223 357 176 222 228 209 194 193 239 248 262 259 274 257 302 293 336 331 342 308 312 350 300 55 42 12 55 143 154 166
0 358 358 358 358 351 354 351 355 345 324 283 226 202 194 241 267 251 241 211 191 187 213 229 241 249 263 296 317 263 273 335 312 324 351 274 51 70 57 354 49 64 146 152 174
358 357 356 356 357 349 352 347 354 3 1 37 169 179 194 258 245 170 145 167 183 183 220 225 246 273 294 277 306 316 323 299 283 113 127 282 124 128 60 357 54 80 90 160 176
355 355 354 354 355 351 348 342 349 19 48 99 149 167 251 293 156 154 150 153 175 198 212 236 255 278 280 289 305 305 267 235 207 113 151 284 150 85 303 83 50 40 62 77 165
352 353 352 353 353 351 349 343 347 39 53 117 158 185 291 163 179 175 174 194 209 221 253 280 248 266 276 285 288 245 228 211 143 231 121 252 104 76 57 69 64 32 96 102 80
349 349 350 352 352 352 357 10 319 163 101 146 146 292 232 173 187 196 192 189 206 232 241 266 255 256 269 243 254 223 247 147 143 132 325 266 116 92 79 88 77 65 47 87 105
345 345 347 349 351 359 4 357 56 139 240 181 240 262 198 200 185 194 201 235 212 204 210 232 237 240 228 245 278 340 340 116 246 135 187 250 119 107 1 108 102 89 73 72 64
339 341 343 346 353 16 9 353 319 232 212 243 150 259 156 137 166 193 198 207 217 218 236 189 227 233 217 23 6 326 317 312 302 93 309 282 67 109 99 98 114 115 115 94 81
335 336 338 343 357 21 17 353 16 322 291 238 241 237 173 181 189 205 189 204 208 234 213 219 231 299 19 349 313 296 279 261 154 129 277 282 209 201 159 112 106 130 109 100 98
332 333 334 339 12 6 340 356 336 323 262 227 212 213 205 207 228 180 191 217 232 237 225 265 78 51 316 252 248 242 256 16 338 330 255 249 258 219 140 151 133 122 123 112 95
328 329 336 337 336 329 309 340 335 311 268 158 194 213 180 207 233 183 197 215 233 264 219 259 80 340 274 279 319 339 20 330 293 282 280 326 263 158 152 166 170 133 108 103 95
323 322 333 324 317 352 319 331 325 274 276 145 141 154 183 207 137 178 191 227 265 235 247 246 124 213 252 303 28 309 353 301 286 278 272 266 249 170 157 170 160 126 102 88 88
320 317 317 319 299 320 320 316 296 238 251 158 146 190 179 211 191 160 198 229 267 295 238 280 44 334 297 6 286 308 295 277 257 248 251 242 244 136 172 179 144 120 114 98 76
316 306 299 283 232 301 314 304 236 245 133 159 177 184 203 195 217 178 196 206 236 212 233 227 218 210 301 273 233 244 276 308 306 215 254 66 212 102 120 101 96 107 116 92 186
313 302 301 278 262 293 299 257 252 264 224 68 249 183 203 218 205 189 210 224 215 260 283 261 263 170 154 252 344 319 339 295 303 310 355 129 228 123 116 120 121 132 133 280 37
322 298 285 296 261 256 266 239 235 253 342 91 217 270 222 245 210 208 227 251 241 214 236 287 5 89 129 111 194 216 265 326 312 286 272 270 119 158 136 141 146 171 86 4 352
329 306 255 211 231 245 252 253 283 312 350 343 280 223 249 226 190 233 251 221 243 141 349 287 298 224 175 162 252 244 306 295 267 257 286 316 343 106 130 167 112 107 357 322 359
324 276 148 192 219 235 240 249 256 210 308 276 271 269 281 273 267 206 235 249 198 132 213 277 276 268 143 200 253 178 239 217 291 305 307 295 57 90 72 54 20 322 294 358 325
288 256 173 213 231 234 241 240 289 283 205 256 272 290 292 268 268 261 268 28 102 182 277 253 290 256 264 292 228 275 293 304 281 282 272 311 292 101 105 75 343 326 47 41 15
311 287 266 227 246 235 244 237 258 264 248 259 238 252 268 279 281 272 270 83 91 206 10 337 254 258 250 250 221 206 283 281 251 275 266 274 280 277 167 191 8 87 47 9 341
298 278 207 224 249 283 294 296 224 212 284 310 285 282 255 259 261 248 267 139 134 71 45 315 276 293 285 307 314 296 257 222 259 269 279 276 286 293 337 344 19 4 337 9 323
249 284 12 281 235 279 263 278 284 223 193 261 242 258 247 259 246 242 239 255 148 146 211 261 260 272 275 284 295 294 289 286 278 279 274 282 289 307 1 27 5 2 11 342 326
298 344 335 303 292 291 275 264 266 274 277 195 235 270 229 256 253 265 254 240 235 155 190 240 255 259 278 287 282 277 276 274 272 271 273 277 280 340 47 22 3 350 337 331 325
359 315 285 290 287 249 260 258 249 266 269 297 297 309 256 17 349 328 307 294 327 270 208 201 265 277 270 291 296 283 270 267 273 275 273 271 310 45 32 3 349 331 316 302 352
Height
1517 1513 1510 1506 1501 1498 1496 1495 1494 1493 1492 1491 1491 1491 1490 1490 1489 1489 1488 1490 1489 1491 1491 1491 1491 1493 1492 1489 1482 1478 1475 1467 1459 1464 1464 1459 1463 1461 1463 1460 1462 1467 1473 1481 1493
1517 1513 1509 1505 1500 1498 1495 1494 1492 1491 1490 1490 1490 1489 1489 1489 1488 1485 1487 1487 1488 1489 1491 1493 1492 1491 1489 1482 1477 1473 1467 1464 1460 1463 1465 1466 1466 1466 1464 1463 1465 1470 1478 1487 1493
1517 1513 1509 1504 1500 1497 1495 1492 1490 1489 1488 1488 1488 1488 1488 1488 1487 1483 1483 1485 1486 1488 1490 1493 1492 1490 1486 1477 1474 1469 1470 1463 1466 1467 1469 1468 1467 1464 1465 1466 1470 1473 1479 1488 1494
1517 1513 1509 1504 1500 1497 1494 1491 1489 1487 1486 1486 1487 1488 1488 1488 1483 1483 1483 1484 1485 1487 1490 1492 1492 1490 1484 1474 1470 1473 1468 1466 1467 1469 1469 1467 1468 1467 1469 1473 1473 1473 1476 1486 1493
1517 1513 1509 1504 1500 1496 1493 1491 1489 1487 1485 1485 1485 1486 1487 1488 1485 1483 1483 1483 1485 1487 1490 1491 1490 1487 1482 1472 1469 1470 1467 1469 1469 1469 1470 1469 1468 1468 1474 1473 1474 1475 1477 1484 1492
1517 1513 1508 1504 1500 1496 1493 1490 1488 1487 1485 1484 1484 1486 1488 1488 1483 1482 1483 1483 1485 1488 1490 1490 1487 1485 1481 1476 1473 1469 1470 1470 1469 1469 1470 1466 1470 1470 1475 1474 1475 1477 1478 1481 1488
1516 1512 1508 1503 1499 1496 1492 1489 1488 1487 1486 1485 1485 1486 1488 1486 1485 1484 1483 1485 1488 1489 1489 1489 1488 1486 1479 1474 1471 1471 1472 1464 1465 1465 1466 1467 1469 1473 1474 1473 1477 1478 1482 1482 1485
1515 1511 1507 1503 1498 1495 1492 1488 1488 1487 1487 1486 1487 1487 1485 1485 1486 1486 1487 1488 1488 1489 1488 1487 1488 1486 1481 1476 1471 1468 1462 1468 1462 1465 1466 1469 1479 1472 1471 1475 1481 1483 1484 1487 1488
1514 1510 1506 1502 1498 1494 1491 1489 1488 1488 1487 1487 1488 1489 1482 1483 1485 1485 1487 1487 1488 1488 1488 1488 1488 1484 1479 1474 1471 1458 1465 1460 1465 1463 1465 1465 1475 1472 1472 1478 1483 1487 1487 1488 1492
1513 1509 1505 1501 1498 1494 1491 1489 1488 1488 1488 1487 1488 1492 1483 1481 1482 1484 1485 1486 1486 1486 1487 1487 1484 1479 1472 1470 1481 1468 1460 1457 1467 1462 1464 1465 1465 1469 1474 1475 1483 1488 1492 1494 1495
1511 1508 1504 1500 1497 1494 1492 1488 1491 1490 1488 1480 1479 1477 1477 1479 1482 1482 1484 1485 1485 1484 1482 1478 1480 1474 1460 1458 1461 1464 1466 1468 1459 1459 1471 1467 1465 1468 1474 1474 1480 1487 1493 1498 1500
1510 1506 1503 1500 1497 1495 1492 1492 1492 1493 1485 1477 1477 1476 1476 1478 1479 1480 1483 1484 1482 1480 1473 1473 1476 1460 1461 1465 1468 1467 1469 1466 1457 1460 1469 1466 1466 1463 1471 1476 1479 1485 1491 1495 1501
1509 1505 1501 1498 1496 1494 1495 1493 1492 1491 1485 1471 1472 1474 1476 1478 1474 1475 1481 1480 1475 1473 1468 1472 1465 1465 1467 1466 1470 1465 1466 1467 1471 1462 1461 1463 1469 1461 1468 1476 1481 1485 1490 1495 1501
1507 1504 1501 1496 1497 1494 1494 1493 1492 1490 1483 1464 1468 1469 1472 1475 1471 1470 1476 1476 1470 1470 1463 1465 1463 1467 1469 1468 1467 1471 1464 1468 1471 1475 1484 1455 1485 1459 1466 1473 1477 1482 1488 1494 1499
1505 1502 1501 1498 1496 1494 1494 1492 1490 1491 1495 1460 1462 1464 1468 1470 1462 1470 1473 1473 1472 1466 1470 1467 1464 1470 1474 1467 1469 1474 1468 1471 1470 1473 1472 1466 1473 1454 1462 1472 1474 1479 1488 1495 1499
1503 1501 1498 1496 1494 1493 1493 1491 1491 1491 1486 1456 1456 1462 1464 1465 1463 1466 1471 1474 1470 1467 1466 1464 1464 1467 1467 1467 1471 1471 1472 1466 1461 1463 1482 1458 1462 1474 1462 1464 1469 1478 1487 1495 1498
1500 1498 1495 1494 1492 1494 1492 1491 1489 1486 1446 1452 1453 1455 1458 1461 1460 1464 1469 1472 1476 1483 1477 1463 1463 1464 1470 1473 1467 1470 1472 1488 1484 1478 1481 1450 1462 1465 1457 1461 1469 1479 1486 1492 1495
1496 1494 1493 1491 1491 1492 1492 1488 1495 1454 1443 1441 1445 1448 1457 1451 1455 1458 1463 1469 1464 1464 1467 1469 1472 1461 1465 1472 1477 1475 1478 1498 1512 1494 1485 1459 1475 1463 1453 1462 1471 1479 1484 1489 1491
1493 1491 1489 1489 1490 1491 1491 1485 1471 1453 1444 1446 1449 1455 1452 1447 1449 1453 1459 1461 1454 1453 1474 1473 1470 1458 1465 1467 1474 1479 1487 1469 1483 1477 1483 1465 1457 1455 1456 1463 1470 1477 1483 1487 1490
1491 1488 1485 1488 1489 1490 1486 1482 1460 1452 1454 1454 1464 1449 1459 1448 1454 1457 1456 1451 1452 1455 1460 1465 1481 1459 1460 1471 1473 1477 1473 1491 1479 1504 1500 1471 1469 1478 1469 1469 1471 1477 1482 1487 1489
1493 1488 1482 1485 1487 1486 1481 1465 1455 1452 1460 1462 1461 1457 1449 1448 1443 1449 1453 1447 1448 1456 1463 1465 1469 1468 1466 1472 1475 1475 1479 1476 1472 1477 1497 1498 1482 1460 1469 1472 1476 1478 1481 1483 1487
1494 1486 1481 1484 1484 1475 1469 1461 1458 1456 1460 1463 1459 1456 1454 1449 1451 1451 1454 1447 1449 1455 1466 1463 1467 1477 1470 1455 1458 1463 1470 1475 1495 1493 1478 1484 1481 1460 1466 1471 1474 1476 1481 1485 1489
1497 1486 1480 1481 1477 1467 1458 1455 1459 1461 1458 1459 1459 1456 1454 1455 1462 1453 1452 1458 1462 1464 1469 1470 1473 1487 1480 1466 1455 1465 1469 1472 1474 1476 1492 1501 1489 1458 1465 1466 1471 1476 1481 1485 1488
1500 1479 1474 1475 1473 1467 1462 1454 1458 1461 1462 1459 1459 1456 1455 1459 1455 1461 1456 1458 1466 1469 1476 1476 1477 1485 1491 1474 1470 1474 1469 1468 1473 1484 1481 1478 1472 1462 1462 1466 1470 1475 1479 1482 1486
1498 1481 1479 1469 1465 1464 1462 1460 1458 1457 1462 1462 1463 1461 1461 1466 1462 1460 1460 1458 1465 1472 1476 1479 1488 1482 1476 1471 1469 1470 1470 1467 1471 1470 1481 1473 1470 1464 1465 1470 1473 1476 1479 1482 1484
1500 1494 1489 1481 1476 1473 1469 1468 1466 1459 1456 1458 1464 1461 1458 1463 1461 1462 1455 1458 1459 1467 1472 1477 1484 1480 1484 1477 1475 1475 1467 1466 1465 1465 1465 1464 1467 1461 1469 1473 1477 1480 1481 1482 1482
1502 1501 1497 1485 1476 1472 1469 1465 1463 1460 1458 1459 1460 1461 1461 1463 1463 1462 1457 1456 1458 1462 1468 1474 1479 1484 1491 1477 1476 1480 1466 1460 1459 1457 1457 1468 1462 1464 1471 1476 1479 1480 1480 1480 1481